| time (UTC) | temp C | wind direction | speed KPH | gust KPH | rain 1hr cm | rain 24hr cm | rain mn cm | humidity % | barometer mb |
| 20260906163103 | 20 | 360 | 4.8 | 0.0 | 0.00 | 0.00 | 0.00 | 40 | 1026.0 |
| 20260906162254 | 20 | 310 | 8.0 | 0.0 | 0.00 | 0.00 | 0.00 | 37 | |
| 20260906160210 | 20 | 310 | 8.0 | 0.0 | 0.00 | 0.00 | 0.00 | 40 | 1026.0 |
| 20260906153103 | 20 | 320 | 9.7 | 0.0 | 0.00 | 0.00 | 0.00 | 40 | 1026.0 |
| 20260906143104 | 20 | 310 | 11.3 | 0.0 | 0.00 | 0.00 | 0.00 | 42 | 1027.0 |
| 20260906141849 | 20 | 310 | 11.3 | 0.0 | 0.00 | 0.00 | 0.00 | 40 | |
| 20260906133103 | 18 | 270 | 12.9 | 0.0 | 0.00 | 0.00 | 0.00 | 45 | 1027.0 |
| 20260906132153 | 18 | 260 | 11.3 | 0.0 | 0.00 | 0.00 | 0.00 | 42 | |
| 20260906130103 | 18 | 300 | 11.3 | 0.0 | 0.00 | 0.00 | 0.00 | 42 | 1027.0 |
| 20260906123103 | 18 | 260 | 12.9 | 0.0 | 0.00 | 0.00 | 0.00 | 42 | 1027.0 |
| 20260906121851 | 18 | 240 | 11.3 | 0.0 | 0.00 | 0.00 | 0.00 | 42 | |
| 20260906113103 | 17 | 290 | 19.3 | 0.0 | 0.00 | 0.00 | 0.00 | 48 | 1027.0 |
| 20260906111852 | 17 | 280 | 19.3 | 0.0 | 0.00 | 0.00 | 0.00 | 45 | |
| 20260906110210 | 17 | 270 | 20.9 | 0.0 | 0.00 | 0.00 | 0.00 | 48 | 1027.0 |
| 20260906103102 | 17 | 310 | 9.7 | 0.0 | 0.00 | 0.00 | 0.00 | 55 | 1028.0 |
| 20260906102253 | 17 | 260 | 8.0 | 0.0 | 0.00 | 0.00 | 0.00 | 51 | |
| 20260906093103 | 16 | 270 | 14.5 | 0.0 | 0.00 | 0.00 | 0.00 | 59 | 1028.0 |
| 20260906091851 | 16 | 290 | 14.5 | 0.0 | 0.00 | 0.00 | 0.00 | 55 | |
| 20260906083103 | 16 | 280 | 14.5 | 0.0 | 0.00 | 0.00 | 0.00 | 59 | 1028.0 |
| 20260906081853 | 16 | 270 | 14.5 | 0.0 | 0.00 | 0.00 | 0.00 | 59 | |
| 20260906080103 | 16 | 280 | 14.5 | 0.0 | 0.00 | 0.00 | 0.00 | 59 | 1027.0 |
| 20260906073103 | 15 | 290 | 16.1 | 0.0 | 0.00 | 0.00 | 0.00 | 67 | 1027.0 |
| 20260906072153 | 15 | 290 | 14.5 | 0.0 | 0.00 | 0.00 | 0.00 | 62 | |
| 20260906063103 | 13 | 280 | 14.5 | 0.0 | 0.00 | 0.00 | 0.00 | 71 | 1026.0 |
| 20260906061852 | 13 | 270 | 11.3 | 0.0 | 0.00 | 0.00 | 0.00 | 67 | |
| 20260906060103 | 13 | 270 | 12.9 | 0.0 | 0.00 | 0.00 | 0.00 | 71 | 1026.0 |
| 20260906053103 | 12 | 250 | 11.3 | 0.0 | 0.00 | 0.00 | 0.00 | 81 | 1026.0 |
| 20260906051850 | 12 | 240 | 11.3 | 0.0 | 0.00 | 0.00 | 0.00 | 71 | |
| 20260906043102 | 12 | 250 | 11.3 | 0.0 | 0.00 | 0.00 | 0.00 | 81 | 1025.0 |
| 20260906042253 | 12 | 240 | 8.0 | 0.0 | 0.00 | 0.00 | 0.00 | 71 | |
| 20260906040104 | 11 | 240 | 9.7 | 0.0 | 0.00 | 0.00 | 0.00 | 81 | 1025.0 |
| 20260906033103 | 12 | 250 | 9.7 | 0.0 | 0.00 | 0.00 | 0.00 | 81 | 1025.0 |
| 20260906031850 | 12 | 240 | 11.3 | 0.0 | 0.00 | 0.00 | 0.00 | 71 | |
| 20260906023103 | 12 | 260 | 8.0 | 0.0 | 0.00 | 0.00 | 0.00 | 71 | 1025.0 |
| 20260906021850 | 13 | 260 | 8.0 | 0.0 | 0.00 | 0.00 | 0.00 | 67 | |
| 20260906013103 | 13 | 280 | 11.3 | 0.0 | 0.00 | 0.00 | 0.00 | 67 | 1024.0 |
| 20260906012151 | 15 | 270 | 11.3 | 0.0 | 0.00 | 0.00 | 0.00 | 62 | |
| 20260906010104 | 13 | 260 | 9.7 | 0.0 | 0.00 | 0.00 | 0.00 | 67 | 1024.0 |
| 20260906003103 | 15 | 260 | 9.7 | 0.0 | 0.00 | 0.00 | 0.00 | 62 | 1024.0 |
| 20260906001851 | 15 | 280 | 8.0 | 0.0 | 0.00 | 0.00 | 0.00 | 62 | |
| 20260905233103 | 15 | 270 | 11.3 | 0.0 | 0.00 | 0.00 | 0.00 | 62 | 1024.0 |
| 20260905231834 | 16 | 270 | 14.5 | 0.0 | 0.00 | 0.00 | 0.00 | 59 | |
| 20260905230103 | 16 | 270 | 12.9 | 0.0 | 0.00 | 0.00 | 0.00 | 59 | 1024.0 |
| 20260905223103 | 16 | 260 | 12.9 | 0.0 | 0.00 | 0.00 | 0.00 | 59 | 1023.0 |
| 20260905222254 | 16 | 280 | 19.3 | 0.0 | 0.00 | 0.00 | 0.00 | 55 | |
| 20260905213102 | 17 | 270 | 14.5 | 0.0 | 0.00 | 0.00 | 0.00 | 55 | 1023.0 |
| 20260905211849 | 17 | 270 | 14.5 | 0.0 | 0.00 | 0.00 | 0.00 | 51 | |
| 20260905210127 | 17 | 270 | 14.5 | 0.0 | 0.00 | 0.00 | 0.00 | 55 | 1023.0 |
| 20260905210031 | 17 | 270 | 11.3 | 0.0 | 0.00 | 0.00 | 0.00 | 55 | 1022.0 |
| 20260905205109 | 17 | 270 | 11.3 | 0.0 | 0.00 | 0.00 | 0.00 | 55 | 1022.0 |
| 20260905204709 | 17 | 270 | 11.3 | 0.0 | 0.00 | 0.00 | 0.00 | 55 | 1022.0 |
| 20260905204110 | 17 | 270 | 11.3 | 0.0 | 0.00 | 0.00 | 0.00 | 55 | 1022.0 |
| 20260905203210 | 17 | 270 | 11.3 | 0.0 | 0.00 | 0.00 | 0.00 | 55 | 1022.0 |
| 20260905201851 | 17 | 270 | 14.5 | 0.0 | 0.00 | 0.00 | 0.00 | 48 | |
| 20260905200910 | 17 | 270 | 14.5 | 0.0 | 0.00 | 0.00 | 0.00 | 52 | 1022.0 |
| 20260905200311 | 17 | 270 | 14.5 | 0.0 | 0.00 | 0.00 | 0.00 | 52 | 1022.0 |
| 20260905195910 | 17 | 280 | 22.5 | 0.0 | 0.00 | 0.00 | 0.00 | 52 | 1022.0 |
| 20260905195210 | 17 | 280 | 22.5 | 0.0 | 0.00 | 0.00 | 0.00 | 52 | 1022.0 |
| 20260905194110 | 17 | 280 | 22.5 | 0.0 | 0.00 | 0.00 | 0.00 | 52 | 1022.0 |
| 20260905193416 | 17 | 280 | 22.5 | 0.0 | 0.00 | 0.00 | 0.00 | 52 | 1022.0 |
| 20260905193210 | 17 | 280 | 22.5 | 0.0 | 0.00 | 0.00 | 0.00 | 52 | 1022.0 |
| 20260905192711 | 18 | 280 | 20.9 | 0.0 | 0.00 | 0.00 | 0.00 | 48 | 1021.0 |
| 20260905192322 | 17 | 280 | 22.5 | 0.0 | 0.00 | 0.00 | 0.00 | 48 | |
| 20260905192117 | 18 | 280 | 20.9 | 0.0 | 0.00 | 0.00 | 0.00 | 48 | 1021.0 |
| 20260905191610 | 18 | 280 | 20.9 | 0.0 | 0.00 | 0.00 | 0.00 | 48 | 1021.0 |
| 20260905181909 | 18 | 280 | 14.5 | 0.0 | 0.00 | 0.00 | 0.00 | 48 | |
| 20260905181309 | 18 | 280 | 14.5 | 0.0 | 0.00 | 0.00 | 0.00 | 48 | 1021.0 |
| 20260905181109 | 18 | 280 | 14.5 | 0.0 | 0.00 | 0.00 | 0.00 | 48 | 1021.0 |
| 20260905180710 | 18 | 280 | 14.5 | 0.0 | 0.00 | 0.00 | 0.00 | 48 | 1021.0 |
| 20260905180312 | 18 | 280 | 14.5 | 0.0 | 0.00 | 0.00 | 0.00 | 48 | 1021.0 |
| 20260905180110 | 18 | 280 | 14.5 | 0.0 | 0.00 | 0.00 | 0.00 | 48 | 1021.0 |
| 20260905175410 | 21 | 290 | 19.3 | 0.0 | 0.00 | 0.00 | 0.00 | 40 | 1020.0 |
| 20260905175209 | 21 | 290 | 19.3 | 0.0 | 0.00 | 0.00 | 0.00 | 40 | 1020.0 |
| 20260905174710 | 21 | 290 | 19.3 | 0.0 | 0.00 | 0.00 | 0.00 | 40 | 1020.0 |
| 20260905174110 | 21 | 290 | 19.3 | 0.0 | 0.00 | 0.00 | 0.00 | 40 | 1020.0 |
| 20260905173417 | 21 | 290 | 19.3 | 0.0 | 0.00 | 0.00 | 0.00 | 40 | 1020.0 |
| 20260905172710 | 21 | 290 | 22.5 | 0.0 | 0.00 | 0.00 | 0.00 | 40 | 1020.0 |
| 20260905172117 | 21 | 290 | 22.5 | 0.0 | 0.00 | 0.00 | 0.00 | 40 | 1020.0 |
| 20260905171909 | 21 | 290 | 22.5 | 0.0 | 0.00 | 0.00 | 0.00 | 40 | |
| 20260905171532 | 21 | 290 | 22.5 | 0.0 | 0.00 | 0.00 | 0.00 | 40 | 1020.0 |
| 20260905170524 | 21 | 290 | 22.5 | 0.0 | 0.00 | 0.00 | 0.00 | 40 | 1020.0 |